Location: Musselshell
(46.5176°N, 108.0911°W)
Time: 08:35:10
(UTC+00:00)

CAS-6 - Visible Passes

Search period start: 27 June 2022 00:00
Search period end: 07 July 2022 00:00
Orbit: 613 x 635 km, 97.9° (Epoch: 26 June)

Date Brightness Start Highest point End Pass type
(mag) Time Alt. Az. Time Alt. Az. Time Alt. Az.
27 Jun ? 04:12:25 10° ESE 04:15:28 19° ENE 04:18:32 10° NNE visible
27 Jun ? 05:49:14 27° SSW 05:51:19 50° W 05:55:35 10° NNW visible
28 Jun ? 04:30:39 13° ESE 04:33:45 27° ENE 04:37:26 10° N visible
28 Jun ? 06:07:53 23° SW 06:09:50 33° W 06:13:47 10° NNW visible
29 Jun ? 04:49:17 18° SE 04:52:03 40° ENE 04:56:08 10° N visible
29 Jun ? 06:26:32 17° SW 06:28:23 22° W 06:31:47 10° NW visible
30 Jun ? 05:07:56 24° SE 05:10:25 62° ENE 05:14:43 10° N visible
30 Jun ? 06:45:11 12° WSW 06:47:00 14° W 06:49:25 10° NW visible
01 Jul ? 03:51:36 10° E 03:53:17 12° ENE 03:54:58 10° NE visible
01 Jul ? 05:26:35 29° SSE 05:28:49 86° WSW 05:33:11 10° NNW visible
02 Jul ? 04:08:37 10° ESE 04:11:29 17° ENE 04:14:21 10° NNE visible
02 Jul ? 05:45:14 29° SSW 05:47:16 55° W 05:51:33 10° NNW visible
03 Jul ? 04:26:38 12° ESE 04:29:44 25° ENE 04:33:17 10° N visible
03 Jul ? 06:03:53 24° SW 06:05:46 36° W 06:09:47 10° NNW visible
04 Jul ? 04:45:17 18° SE 04:48:02 37° ENE 04:52:01 10° N visible
04 Jul ? 06:22:32 18° SW 06:24:19 24° W 06:27:51 10° NW visible
05 Jul ? 05:03:56 24° SE 05:06:22 56° ENE 05:10:37 10° N visible
05 Jul ? 06:41:11 13° WSW 06:42:54 16° W 06:45:34 10° NW visible
06 Jul ? 03:48:06 10° ENE 03:49:17 11° ENE 03:50:28 10° NE visible
06 Jul ? 05:22:35 29° SSE 05:24:46 86° ENE 05:29:07 10° NNW visible
06 Jul ? 07:01:14 10° W 07:01:33 10° W 07:01:52 10° W visible
